Estación de Morza

Ultimos registro cada 15 minutos 52
Estación Fecha / Hora Temperatura Humedad Lluvia Velocidad Dirección Radiación Presion
52 Morza 06-05-2026 12:45 14,3 96 0,2 0,9 55 90 1014,7
51 Morza 06-05-2026 12:30 13,8 96 0,2 0,9 13 40 1015
50 Morza 06-05-2026 12:15 13,7 96 0,4 1,3 51 12 1015
49 Morza 06-05-2026 12:00 13,5 95 1,6 0 305 32 1014,7
48 Morza 06-05-2026 11:45 13,4 95 2,2 0,9 355 28 1014,6
47 Morza 06-05-2026 11:30 13,4 95 0,2 1,8 56 84 1014,5
46 Morza 06-05-2026 11:15 13,3 95 0,6 0,9 61 25 1014,4
45 Morza 06-05-2026 11:00 13,3 95 0,2 0,4 71 30 1014,3
44 Morza 06-05-2026 10:45 13,1 96 2 0,9 313 69 1014,1
43 Morza 06-05-2026 10:30 12,7 95 1 0,9 301 21 1013,7
42 Morza 06-05-2026 10:15 12,6 94 0,4 0 269 30 1013,1
41 Morza 06-05-2026 10:00 12,4 94 0 0 15 5 1013
40 Morza 06-05-2026 09:45 12,1 96 0 0,9 62 30 1012,3
39 Morza 06-05-2026 09:30 11,7 96 0,8 0 311 72 1012,8
38 Morza 06-05-2026 09:15 11,4 96 0 0 234 9 1012,1
37 Morza 06-05-2026 09:00 11,1 96 0 0 132 76 1012,1
36 Morza 06-05-2026 08:45 10,8 96 0 0 123 21 1012,4
35 Morza 06-05-2026 08:30 10,6 96 0 0 119 14 1012,2
34 Morza 06-05-2026 08:15 10,3 96 0,4 0,4 140 12 1012,6
33 Morza 06-05-2026 08:00 10,2 96 0,4 0 134 0 1012,5
32 Morza 06-05-2026 07:45 10,1 96 0 0 346 5 1012,3
31 Morza 06-05-2026 07:30 9,6 97 0 2,7 326 5 1012,2
30 Morza 06-05-2026 07:15 8,3 96 0 0,4 246 0 1011,9
29 Morza 06-05-2026 07:00 7,3 96 0 0 205 0 1011,2
28 Morza 06-05-2026 06:45 6,8 95 0 0 182 0 1011,1
27 Morza 06-05-2026 06:30 6,7 94 0 0,4 201 0 1011,3
26 Morza 06-05-2026 06:15 6,9 94 0 0 210 0 1011,5
25 Morza 06-05-2026 06:00 7,3 95 0 0 210 0 1011,3
24 Morza 06-05-2026 05:45 7,2 95 0 0,4 182 0 1011,3
23 Morza 06-05-2026 05:30 6,9 93 0 0 182 0 1011,6
22 Morza 06-05-2026 05:15 7,4 93 0 0 234 0 1011,6
21 Morza 06-05-2026 05:00 8,2 95 0 0 121 0 1011,5
20 Morza 06-05-2026 04:45 8,2 95 0 0 227 0 1011,3
19 Morza 06-05-2026 04:30 8,3 94 0 0 282 0 1011,5
18 Morza 06-05-2026 04:15 8,6 94 0 1,8 288 0 1011,4
17 Morza 06-05-2026 04:00 9 94 0 0,4 94 0 1011,4
16 Morza 06-05-2026 03:45 9,4 94 0 0 146 0 1012,1
15 Morza 06-05-2026 03:30 9,8 95 0 0 150 0 1011,9
14 Morza 06-05-2026 03:15 9,7 95 0 0 143 0 1012,2
13 Morza 06-05-2026 03:00 9,3 95 0 0 160 0 1012,5
12 Morza 06-05-2026 02:45 9,1 94 0 0 292 0 1012,4
11 Morza 06-05-2026 02:30 9,2 94 0 0 182 0 1012,1
10 Morza 06-05-2026 02:15 9,2 94 0 0 192 0 1011,9
9 Morza 06-05-2026 02:00 9,3 92 0 0 192 0 1011,9
8 Morza 06-05-2026 01:45 9,7 93 0 0 209 0 1011,8
7 Morza 06-05-2026 01:30 10,1 93 0 0,4 172 0 1011,9
6 Morza 06-05-2026 01:15 10,2 94 0 0 107 0 1012
5 Morza 06-05-2026 01:00 10,2 93 0 0 186 0 1012,2
4 Morza 06-05-2026 00:45 10,3 93 0 0 182 0 1012,4
3 Morza 06-05-2026 00:30 10,3 93 0 0 223 0 1012,5
2 Morza 06-05-2026 00:15 10,4 92 0 0 228 0 1012,7
1 Morza 06-05-2026 00:00 10,6 92 0 0 228 0 1012,6